{"data":{"norad_id":51789,"epoch":"2026-05-24T21:39:55.795104Z","epoch_age_seconds":86656,"freshness":"FRESH","line1":"1 51789U 22017X   26144.90272911 -.00000887  00000+0 -37669-4 0  9999","line2":"2 51789  53.2137   6.9857 0001583  89.5490 270.5683 15.08838901233787","mean_motion":15.08838901,"eccentricity":0.0001583,"inclination_deg":53.2137,"raan_deg":6.9857,"arg_perigee_deg":89.549,"mean_anomaly_deg":270.5683,"bstar":-3.7669e-5,"rev_number":23378,"period_min":95.437624192061,"perigee_km":538.65164717215,"apogee_km":540.84184916682,"semimajor_km":6917.8837481695,"source":"CELESTRAK","updated_at":"2026-05-25T13:38:16.954260Z"}}